Change the Weather History Date:

Tuesday, February 19, 2013

  Actual Average Record
Temperature  
Mean Temperature 34 °F 33 °F  
Max Temperature 46 °F 41 °F 69 °F (1930)
Min Temperature 21 °F 25 °F -8 °F (1979)
Degree Days  
Heating Degree Days 31 32  
Month to date heating degree days 640 650  
Since 1 July heating degree days 3704 3871  
Cooling Degree Days 0 0  
Month to date cooling degree days 0 0  
Year to date cooling degree days 0 0  
Moisture  
Dew Point 21 °F    
Average Humidity 76    
Maximum Humidity 92    
Minimum Humidity 60    
Precipitation  
Precipitation 0.06 in 0.08 in 1.21 in (1882)
Month to date precipitation 0.56 1.55  
Year to date precipitation 6.07 4.21  
Snow  
Snow T in 0.20 in 3.40 in (1914)
Month to date snowfall 1.5 4.8  
Since 1 July snowfall 18.9 21.4  
Snow Depth 0.00 in    
Sea Level Pressure  
Sea Level Pressure 29.89 in    
Wind  
Wind Speed 23 mph (West)    
Max Wind Speed 40 mph    
Max Gust Speed 59 mph    
Visibility 8 miles    
Events Rain , Snow    
T = Trace of Precipitation, MM = Missing Value Source: NWS Daily Summary

Daily Weather History Graph

Daily Weather History Graph

Search for Another Location

Airport or City:

Trip Planner

Search our weather history database for the weather conditions in past years. The results will help you decide how hot, cold, wet, or windy it might be!

Date:

Astronomy

Feb. 19, 2013 Rise Set
Actual Time 7:32 AM EST 6:26 PM EST
Civil Twilight 7:04 AM EST 6:53 PM EST
Nautical Twilight 6:33 AM EST 7:25 PM EST
Astronomical Twilight 6:02 AM EST 7:56 PM EST
Moon 12:58 PM EST (2/19) 3:03 AM EST (2/19)
Length of Visible Light 11h 49m
Length of Day
10h 54m
Waxing Gibbous, 67% of the Moon is Illuminated
Feb 19
Waxing Gibbous
Feb 25
Full
Mar 4
Last Quarter
Mar 11
New
Mar 19
First Quarter

Hourly Weather History & Observations

Time (EST) Temp. Windchill Dew Point Humidity Pressure Visibility Wind Dir Wind Speed Gust Speed Precip Events Conditions
12:47 AM 46.4 °F 38.3 °F 42.8 °F 87% 29.57 in 7.0 mi SSW 23.0 mph 33.4 mph 0.02 in Rain Light Rain
12:54 AM 46.0 °F 37.6 °F 43.0 °F 89% 29.57 in 10.0 mi South 24.2 mph 32.2 mph 0.03 in Rain Light Rain
1:14 AM 42.8 °F 32.1 °F 39.2 °F 87% 29.62 in 5.0 mi West 31.1 mph 58.7 mph 0.02 in Rain Light Rain
1:33 AM 37.4 °F 25.0 °F 35.6 °F 93% 29.65 in 10.0 mi West 29.9 mph 38.0 mph 0.03 in Rain Light Rain
1:54 AM 35.1 °F 23.3 °F 33.1 °F 92% 29.69 in 10.0 mi West 23.0 mph 31.1 mph 0.03 in Rain Light Rain
2:54 AM 32.0 °F 19.5 °F 30.0 °F 92% 29.71 in 10.0 mi West 21.9 mph 29.9 mph 0.00 in   Overcast
3:24 AM 30.2 °F 16.2 °F 28.4 °F 93% 29.71 in 10.0 mi West 25.3 mph 32.2 mph N/A   Overcast
3:54 AM 30.0 °F 15.2 °F 27.0 °F 88% 29.74 in 10.0 mi West 28.8 mph 35.7 mph N/A   Overcast
4:07 AM 28.4 °F 14.1 °F 24.8 °F 86% 29.74 in 10.0 mi West 24.2 mph 35.7 mph N/A   Overcast
4:54 AM 28.0 °F 13.6 °F 21.9 °F 78% 29.77 in 10.0 mi West 24.2 mph 38.0 mph N/A   Overcast
5:54 AM 28.0 °F 12.8 °F 21.0 °F 75% 29.80 in 10.0 mi West 27.6 mph 36.8 mph N/A   Overcast
6:54 AM 28.0 °F 14.6 °F 21.0 °F 75% 29.81 in 10.0 mi West 20.7 mph 32.2 mph N/A   Overcast
7:54 AM 25.0 °F 9.5 °F 18.0 °F 75% 29.86 in 10.0 mi West 24.2 mph 27.6 mph 0.00 in Snow Light Snow
8:54 AM 26.1 °F 12.0 °F 19.9 °F 78% 29.88 in 4.0 mi West 20.7 mph 26.5 mph 0.00 in Snow Light Snow
9:40 AM 24.8 °F 7.6 °F 17.6 °F 74% 29.89 in 9.0 mi West 31.1 mph 36.8 mph 0.00 in Snow Light Snow
9:54 AM 25.0 °F 10.2 °F 17.1 °F 72% 29.91 in 9.0 mi West 21.9 mph 36.8 mph 0.00 in Snow Light Snow
10:09 AM 24.8 °F 10.0 °F 17.6 °F 74% 29.90 in 9.0 mi West 21.9 mph 28.8 mph 0.00 in Snow Light Snow
10:54 AM 24.1 °F 9.0 °F 18.0 °F 77% 29.93 in 4.0 mi West 21.9 mph 27.6 mph 0.00 in Snow Light Snow
11:08 AM 24.8 °F 11.5 °F 19.4 °F 80% 29.91 in 2.0 mi West 17.3 mph 27.6 mph 0.00 in Snow Light Snow
11:31 AM 24.8 °F 11.9 °F 19.4 °F 80% 29.92 in 1.2 mi West 16.1 mph - 0.00 in Snow Light Snow
11:41 AM 24.8 °F 8.1 °F 17.6 °F 74% 29.92 in 7.0 mi West 28.8 mph 36.8 mph 0.00 in Snow Light Snow
11:54 AM 24.1 °F 8.0 °F 16.0 °F 71% 29.95 in 9.0 mi West 25.3 mph 35.7 mph 0.00 in Snow Light Snow
12:23 PM 24.8 °F 10.0 °F 15.8 °F 69% 29.93 in 8.0 mi West 21.9 mph 40.3 mph 0.00 in Snow Light Snow
12:39 PM 24.8 °F 8.4 °F 17.6 °F 74% 29.93 in 4.0 mi West 27.6 mph 35.7 mph 0.00 in Snow Light Snow
1:07 PM 24.8 °F 8.4 °F 17.6 °F 74% 29.94 in 5.0 mi West 27.6 mph 36.8 mph 0.00 in Snow Light Snow
1:54 PM 25.0 °F 8.9 °F 18.0 °F 75% 29.96 in 6.0 mi West 26.5 mph 34.5 mph 0.00 in Snow Light Snow
2:31 PM 26.6 °F 12.4 °F 15.8 °F 64% 29.95 in 9.0 mi West 21.9 mph 35.7 mph 0.00 in Snow Light Snow
2:54 PM 26.1 °F 12.3 °F 17.1 °F 69% 29.98 in 8.0 mi West 19.6 mph 29.9 mph 0.00 in Snow Light Snow
3:54 PM 25.0 °F 8.9 °F 17.1 °F 72% 30.01 in 3.0 mi West 26.5 mph 31.1 mph 0.00 in Snow Light Snow
4:54 PM 24.1 °F 9.0 °F 15.1 °F 69% 30.05 in 9.0 mi West 21.9 mph 32.2 mph 0.00 in Snow Light Snow
5:54 PM 24.1 °F 8.3 °F 12.9 °F 62% 30.08 in 9.0 mi West 24.2 mph 40.3 mph 0.00 in Snow Light Snow
6:01 PM 24.8 °F 10.0 °F 12.2 °F 59% 30.06 in 9.0 mi West 21.9 mph 40.3 mph 0.00 in Snow Light Snow
7:54 PM 24.1 °F 9.0 °F 12.0 °F 60% 30.12 in 9.0 mi West 21.9 mph 27.6 mph 0.00 in Snow Light Snow
8:54 PM 23.0 °F 8.3 °F 14.0 °F 68% 30.13 in 9.0 mi West 19.6 mph 27.6 mph 0.00 in Snow Light Snow
9:54 PM 23.0 °F 8.3 °F 12.0 °F 63% 30.14 in 9.0 mi West 19.6 mph 28.8 mph 0.00 in Snow Light Snow
10:54 PM 21.9 °F 7.3 °F 12.0 °F 66% 30.16 in 9.0 mi West 18.4 mph 28.8 mph 0.00 in Snow Light Snow
11:54 PM 21.9 °F 6.9 °F 10.9 °F 63% 30.17 in 9.0 mi West 19.6 mph 28.8 mph 0.00 in Snow Light Snow